Weather History for Geneva, Switzerland

Change the Weather History Date:

Sunday, November 24, 2013

  Actual Average Record
Temperature  
Mean Temperature 44 °F -  
Max Temperature 47 °F 41 °F 55 °F (2006)
Min Temperature 42 °F 31 °F 19 °F (1998)
Degree Days  
Heating Degree Days 20    
Moisture  
Dew Point 35 °F    
Average Humidity 68    
Maximum Humidity 81    
Minimum Humidity 50    
Precipitation  
Precipitation 0.00 in 0.11 in - ()
Sea Level Pressure  
Sea Level Pressure 29.93 in    
Wind  
Wind Speed 20 mph ()    
Max Wind Speed 28 mph    
Max Gust Speed 44 mph    
Visibility 6.4 miles    
Events      
Averages and records for this station are not official NWS values.
T = Trace of Precipitation, MM = Missing Value Source: Averaged Metar Reports

Daily Weather History Graph

Daily Weather History Graph

Search for Another Location

Airport:

Trip Planner

Search our weather history database for the weather conditions in past years. The results will help you decide how hot, cold, wet, or windy it might be!

Date:

Astronomy

Nov. 24, 2013 Rise Set
Actual Time 7:49 AM CET 4:55 PM CET
Civil Twilight 7:15 AM CET 5:28 PM CET
Nautical Twilight 6:38 AM CET 6:05 PM CET
Astronomical Twilight 6:02 AM CET 6:41 PM CET
Moon 11:15 PM CET (11/24) 12:19 PM CET (11/24)
Length of Visible Light 10h 12m
Length of Day
9h 06m
Waning Gibbous, 63% of the Moon is Illuminated
Nov 24
Waning Gibbous
Nov 25
Last Quarter
Dec 3
New
Dec 9
First Quarter
Dec 17
Full

Hourly Weather History & Observations

Time (CET) Temp. Windchill Dew Point Humidity Pressure Visibility Wind Dir Wind Speed Gust Speed Precip Events Conditions
12:00 AM 43 °F - 35 °F 64% 29.83 in - NE 20.7 mph - -  
12:20 AM 42.8 °F 33.8 °F 35.6 °F 76% 29.80 in 6.2 mi NE 21.9 mph 33.4 mph N/A   Mostly Cloudy
12:50 AM 42.8 °F 33.5 °F 35.6 °F 76% 29.80 in 6.2 mi NE 23.0 mph - N/A   Mostly Cloudy
1:00 AM 43 °F - 35 °F 66% 29.83 in 16 mi NE 24.2 mph - -   Mostly Cloudy
1:20 AM 42.8 °F 34.5 °F 37.4 °F 81% 29.80 in 6.2 mi NE 18.4 mph 29.9 mph N/A   Mostly Cloudy
1:50 AM 42.8 °F 34.0 °F 35.6 °F 76% 29.80 in 6.2 mi NE 20.7 mph 32.2 mph N/A   Mostly Cloudy
2:00 AM 44 °F - 35 °F 62% 29.83 in - NE 20.7 mph - -  
2:50 AM 42.8 °F 34.0 °F 37.4 °F 81% 29.80 in 6.2 mi NE 20.7 mph - N/A   Mostly Cloudy
3:00 AM 43 °F - 35 °F 66% 29.84 in - NE 19.6 mph - -  
3:20 AM 44.6 °F 36.1 °F 37.4 °F 76% 29.80 in 6.2 mi NE 21.9 mph 35.7 mph N/A   Mostly Cloudy
3:50 AM 42.8 °F 33.8 °F 35.6 °F 76% 29.80 in 6.2 mi NE 21.9 mph - N/A   Mostly Cloudy
4:20 AM 44.6 °F 35.7 °F 37.4 °F 76% 29.80 in 6.2 mi NNE 24.2 mph - N/A   Mostly Cloudy
4:50 AM 42.8 °F 32.9 °F 35.6 °F 76% 29.80 in 6.2 mi NNE 26.5 mph 39.1 mph N/A   Mostly Cloudy
5:00 AM 43 °F - 35 °F 63% 29.84 in - NNE 25.3 mph - -  
5:20 AM 42.8 °F 33.1 °F 35.6 °F 76% 29.83 in 6.2 mi NNE 25.3 mph 38.0 mph N/A   Scattered Clouds
5:50 AM 42.8 °F 33.1 °F 35.6 °F 76% 29.83 in 6.2 mi NNE 25.3 mph - N/A   Scattered Clouds
6:00 AM 43 °F - 34 °F 60% 29.86 in - NNE 25.3 mph - -  
6:20 AM 42.8 °F 32.9 °F 35.6 °F 76% 29.83 in 6.2 mi NNE 26.5 mph 42.6 mph N/A   Scattered Clouds
6:50 AM 42.8 °F 33.1 °F 35.6 °F 76% 29.83 in 6.2 mi NNE 25.3 mph 38.0 mph N/A   Scattered Clouds
7:00 AM 43 °F - 34 °F 61% 29.88 in 25 mi NNE 23.0 mph - -   Partly Cloudy
7:20 AM 42.8 °F 33.5 °F 35.6 °F 76% 29.86 in 6.2 mi NNE 23.0 mph 35.7 mph N/A   Scattered Clouds
7:50 AM 42.8 °F 34.3 °F 35.6 °F 76% 29.86 in 6.2 mi NNE 19.6 mph - N/A   Mostly Cloudy
8:00 AM 43 °F - 34 °F 61% 29.90 in - NNE 19.6 mph - -  
8:20 AM 42.8 °F 33.8 °F 35.6 °F 76% 29.86 in 6.2 mi NNE 21.9 mph 35.7 mph N/A   Scattered Clouds
8:50 AM 42.8 °F 33.8 °F 33.8 °F 70% 29.89 in 6.2 mi NNE 21.9 mph 35.7 mph N/A   Scattered Clouds
9:00 AM 42 °F - 34 °F 63% 29.92 in - NNE 23.0 mph - -  
9:20 AM 42.8 °F 33.5 °F 35.6 °F 76% 29.89 in 6.2 mi NNE 23.0 mph 34.5 mph N/A   Scattered Clouds
9:50 AM 42.8 °F 33.1 °F 35.6 °F 76% 29.89 in 6.2 mi NNE 25.3 mph 43.7 mph N/A   Scattered Clouds
10:20 AM 42.8 °F 32.9 °F 35.6 °F 76% 29.89 in 6.2 mi NNE 26.5 mph 40.3 mph N/A   Scattered Clouds
10:50 AM 44.6 °F 35.1 °F 35.6 °F 71% 29.89 in 6.2 mi NNE 27.6 mph 40.3 mph N/A   Partly Cloudy
11:00 AM 44 °F - 34 °F 57% 29.94 in - NNE 26.5 mph - -  
11:20 AM 44.6 °F 35.5 °F 35.6 °F 71% 29.92 in 6.2 mi NNE 25.3 mph 38.0 mph N/A   Scattered Clouds
11:50 AM 44.6 °F 36.4 °F 35.6 °F 71% 29.92 in 6.2 mi NE 20.7 mph 36.8 mph N/A   Partly Cloudy
12:00 PM 45 °F - 34 °F 54% 29.95 in - NE 17.3 mph - -  
12:20 PM 44.6 °F 36.4 °F 35.6 °F 71% 29.92 in 6.2 mi NE 20.7 mph 33.4 mph N/A   Partly Cloudy
12:50 PM 46.4 °F 38.7 °F 35.6 °F 66% 29.92 in 6.2 mi NE 20.7 mph 35.7 mph N/A   Scattered Clouds
1:00 PM 46 °F - 34 °F 51% 29.95 in 25 mi NE 21.9 mph - -   Partly Cloudy
1:20 PM 46.4 °F 38.5 °F 35.6 °F 66% 29.92 in 6.2 mi NNE 21.9 mph 35.7 mph N/A   Scattered Clouds
1:50 PM 46.4 °F 38.5 °F 35.6 °F 66% 29.92 in 6.2 mi NNE 21.9 mph 35.7 mph N/A   Scattered Clouds
2:00 PM 46 °F - 34 °F 51% 29.96 in - NNE 24.2 mph - -  
2:20 PM 46.4 °F 38.1 °F 35.6 °F 66% 29.92 in 6.2 mi NE 24.2 mph - N/A   Scattered Clouds
2:50 PM 46.4 °F 38.3 °F 35.6 °F 66% 29.95 in 6.2 mi NE 23.0 mph 39.1 mph N/A   Scattered Clouds
3:00 PM 47 °F - 34 °F 50% 29.96 in - NE 24.2 mph - -  
3:20 PM 46.4 °F 38.3 °F 35.6 °F 66% 29.95 in 6.2 mi NE 23.0 mph - N/A   Scattered Clouds
3:50 PM 46.4 °F 38.7 °F 35.6 °F 66% 29.95 in 6.2 mi NE 20.7 mph - N/A   Scattered Clouds
4:20 PM 46.4 °F 39.2 °F 35.6 °F 66% 29.95 in 6.2 mi NE 18.4 mph 31.1 mph N/A   Partly Cloudy
4:50 PM 44.6 °F 36.6 °F 35.6 °F 71% 29.98 in 6.2 mi NE 19.6 mph 33.4 mph N/A   Scattered Clouds
5:00 PM 44 °F - 34 °F 57% 30.01 in - NNE 18.4 mph - -  
5:20 PM 44.6 °F 36.6 °F 35.6 °F 71% 29.98 in 6.2 mi NNE 19.6 mph - N/A   Scattered Clouds
5:50 PM 44.6 °F 36.9 °F 35.6 °F 71% 30.01 in 6.2 mi NE 18.4 mph - N/A   Scattered Clouds
6:00 PM 44 °F - 34 °F 59% 30.03 in - NNE 19.6 mph - -  
6:20 PM 44.6 °F 37.2 °F 35.6 °F 71% 30.01 in 6.2 mi NE 17.3 mph 29.9 mph N/A   Scattered Clouds
6:50 PM 44.6 °F 36.6 °F 35.6 °F 71% 30.01 in 6.2 mi NE 19.6 mph - N/A   Scattered Clouds
7:00 PM 44 °F - 34 °F 57% 30.06 in 44 mi NE 19.6 mph - -   Partly Cloudy
7:20 PM 44.6 °F 37.8 °F 35.6 °F 71% 30.04 in 6.2 mi NE 15.0 mph - N/A   Scattered Clouds
7:50 PM 42.8 °F 34.5 °F 35.6 °F 76% 30.04 in 6.2 mi NE 18.4 mph - N/A   Partly Cloudy
8:00 PM 43 °F - 34 °F 61% 30.09 in - NE 20.7 mph - -  
8:20 PM 42.8 °F 33.8 °F 35.6 °F 76% 30.06 in 6.2 mi NE 21.9 mph - N/A   Scattered Clouds
8:50 PM 42.8 °F 34.0 °F 35.6 °F 76% 30.06 in 6.2 mi NE 20.7 mph 33.4 mph N/A   Scattered Clouds
9:00 PM 43 °F - 34 °F 60% 30.11 in - NE 19.6 mph - -  
9:20 PM 42.8 °F 34.3 °F 33.8 °F 70% 30.06 in 6.2 mi NE 19.6 mph - N/A   Scattered Clouds
9:50 PM 42.8 °F 35.4 °F 33.8 °F 70% 30.06 in 6.2 mi NE 15.0 mph - N/A   Scattered Clouds
10:20 PM 42.8 °F 35.1 °F 33.8 °F 70% 30.09 in 6.2 mi NE 16.1 mph - N/A   Scattered Clouds
10:50 PM 42.8 °F 34.5 °F 32.0 °F 66% 30.09 in 6.2 mi NE 18.4 mph - N/A   Partly Cloudy
11:00 PM 42 °F - 31 °F 54% 30.13 in - NNE 18.4 mph - -  
11:20 PM 42.8 °F 34.5 °F 32.0 °F 66% 30.09 in 6.2 mi NNE 18.4 mph 29.9 mph N/A   Partly Cloudy
11:50 PM 42.8 °F 35.1 °F 32.0 °F 66% 30.09 in 6.2 mi NE 16.1 mph - N/A   Partly Cloudy